Year,Month,Day,Hour,Minute,Value (Times are PST for temperature in C)
2015,12,09,00,00,7.60
2015,12,09,00,01,7.60
2015,12,09,00,02,7.60
2015,12,09,00,03,7.50
2015,12,09,00,04,7.50
2015,12,09,00,05,7.60
2015,12,09,00,06,7.50
2015,12,09,00,07,7.50
2015,12,09,00,08,7.50
2015,12,09,00,09,7.50
2015,12,09,00,10,7.50
2015,12,09,00,11,7.50
2015,12,09,00,12,7.50
2015,12,09,00,13,7.50
2015,12,09,00,14,7.50
2015,12,09,00,15,7.40
2015,12,09,00,16,7.50
2015,12,09,00,17,7.40
2015,12,09,00,18,7.40
2015,12,09,00,19,7.40
2015,12,09,00,20,7.40
2015,12,09,00,21,7.40
2015,12,09,00,22,7.40
2015,12,09,00,23,7.40
2015,12,09,00,24,7.40
2015,12,09,00,25,7.40
2015,12,09,00,26,7.40
2015,12,09,00,27,7.40
2015,12,09,00,28,7.40
2015,12,09,00,29,7.40
2015,12,09,00,30,7.40
2015,12,09,00,31,7.40
2015,12,09,00,32,7.40
2015,12,09,00,33,7.40
2015,12,09,00,34,7.40
2015,12,09,00,35,7.40
2015,12,09,00,36,7.40
2015,12,09,00,37,7.40
2015,12,09,00,38,7.40
2015,12,09,00,39,7.40
2015,12,09,00,40,7.40
2015,12,09,00,41,7.40
2015,12,09,00,42,7.40
2015,12,09,00,43,7.30
2015,12,09,00,44,7.30
2015,12,09,00,45,7.30
2015,12,09,00,46,7.30
2015,12,09,00,47,7.30
2015,12,09,00,48,7.30
2015,12,09,00,49,7.30
2015,12,09,00,50,7.30
2015,12,09,00,51,7.30
2015,12,09,00,52,7.30
2015,12,09,00,53,7.30
2015,12,09,00,54,7.30
2015,12,09,00,55,7.30
2015,12,09,00,56,7.30
2015,12,09,00,57,7.30
2015,12,09,00,58,7.30
2015,12,09,00,59,7.30
2015,12,09,01,00,7.30
2015,12,09,01,01,7.30
2015,12,09,01,02,7.30
2015,12,09,01,03,7.30
2015,12,09,01,04,7.30
2015,12,09,01,05,7.30
2015,12,09,01,06,7.30
2015,12,09,01,07,7.20
2015,12,09,01,08,7.20
2015,12,09,01,09,7.20
2015,12,09,01,10,7.20
2015,12,09,01,11,7.20
2015,12,09,01,12,7.20
2015,12,09,01,13,7.20
2015,12,09,01,14,7.20
2015,12,09,01,15,7.20
2015,12,09,01,16,7.20
2015,12,09,01,17,7.20
2015,12,09,01,18,7.20
2015,12,09,01,19,7.20
2015,12,09,01,20,7.20
2015,12,09,01,21,7.20
2015,12,09,01,22,7.20
2015,12,09,01,23,7.20
2015,12,09,01,24,7.20
2015,12,09,01,25,7.20
2015,12,09,01,26,7.20
2015,12,09,01,27,7.20
2015,12,09,01,28,7.20
2015,12,09,01,29,7.20
2015,12,09,01,30,7.20
2015,12,09,01,31,7.20
2015,12,09,01,32,7.10
2015,12,09,01,33,7.10
2015,12,09,01,34,7.10
2015,12,09,01,35,7.10
2015,12,09,01,36,7.10
2015,12,09,01,37,7.10
2015,12,09,01,38,7.10
2015,12,09,01,39,7.10
2015,12,09,01,40,7.10
2015,12,09,01,41,7.10
2015,12,09,01,42,7.10
2015,12,09,01,43,7.10
2015,12,09,01,44,7.10
2015,12,09,01,45,7.10
2015,12,09,01,46,7.10
2015,12,09,01,47,7.10
2015,12,09,01,48,7.10
2015,12,09,01,49,7.10
2015,12,09,01,50,7.10
2015,12,09,01,51,7.10
2015,12,09,01,52,7.10
2015,12,09,01,53,7.10
2015,12,09,01,54,7.10
2015,12,09,01,55,7.10
2015,12,09,01,56,7.10
2015,12,09,01,57,7.10
2015,12,09,01,58,7.10
2015,12,09,01,59,7.10
2015,12,09,02,00,7.10
2015,12,09,02,01,7.10
2015,12,09,02,02,7.10
2015,12,09,02,03,7.10
2015,12,09,02,04,7.10
2015,12,09,02,05,7.10
2015,12,09,02,06,7.10
2015,12,09,02,07,7.10
2015,12,09,02,08,7.10
2015,12,09,02,09,7.10
2015,12,09,02,10,7.10
2015,12,09,02,11,7.10
2015,12,09,02,12,7.10
2015,12,09,02,13,7.00
2015,12,09,02,14,7.10
2015,12,09,02,15,7.10
2015,12,09,02,16,7.00
2015,12,09,02,17,7.10
2015,12,09,02,18,7.10
2015,12,09,02,19,7.10
2015,12,09,02,20,7.10
2015,12,09,02,21,7.10
2015,12,09,02,22,7.10
2015,12,09,02,23,7.10
2015,12,09,02,24,7.10
2015,12,09,02,25,7.10
2015,12,09,02,26,7.10
2015,12,09,02,27,7.10
2015,12,09,02,28,7.10
2015,12,09,02,29,7.10
2015,12,09,02,30,7.20
2015,12,09,02,31,7.20
2015,12,09,02,32,7.20
2015,12,09,02,33,7.20
2015,12,09,02,34,7.20
2015,12,09,02,35,7.20
2015,12,09,02,36,7.10
2015,12,09,02,37,7.10
2015,12,09,02,38,7.10
2015,12,09,02,39,7.10
2015,12,09,02,40,7.10
2015,12,09,02,41,7.10
2015,12,09,02,42,7.10
2015,12,09,02,43,7.10
2015,12,09,02,44,7.10
2015,12,09,02,45,7.10
2015,12,09,02,46,7.10
2015,12,09,02,47,7.10
2015,12,09,02,48,7.10
2015,12,09,02,49,7.10
2015,12,09,02,50,7.10
2015,12,09,02,51,7.10
2015,12,09,02,52,7.10
2015,12,09,02,53,7.10
2015,12,09,02,54,7.10
2015,12,09,02,55,7.10
2015,12,09,02,56,7.10
2015,12,09,02,57,7.10
2015,12,09,02,58,7.10
2015,12,09,02,59,7.10
2015,12,09,03,00,7.10
2015,12,09,03,01,7.10
2015,12,09,03,02,7.10
2015,12,09,03,03,7.10
2015,12,09,03,04,7.10
2015,12,09,03,05,7.10
2015,12,09,03,06,7.10
2015,12,09,03,07,7.10
2015,12,09,03,08,7.10
2015,12,09,03,09,7.10
2015,12,09,03,10,7.10
2015,12,09,03,11,7.10
2015,12,09,03,12,7.10
2015,12,09,03,13,7.10
2015,12,09,03,14,7.10
2015,12,09,03,15,7.10
2015,12,09,03,16,7.10
2015,12,09,03,17,7.10
2015,12,09,03,18,7.10
2015,12,09,03,19,7.10
2015,12,09,03,20,7.10
2015,12,09,03,21,7.10
2015,12,09,03,22,7.10
2015,12,09,03,23,7.10
2015,12,09,03,24,7.10
2015,12,09,03,25,7.10
2015,12,09,03,26,7.10
2015,12,09,03,27,7.10
2015,12,09,03,28,7.10
2015,12,09,03,29,7.10
2015,12,09,03,30,7.10
2015,12,09,03,31,7.10
2015,12,09,03,32,7.10
2015,12,09,03,33,7.20
2015,12,09,03,34,7.20
2015,12,09,03,35,7.20
2015,12,09,03,36,7.20
2015,12,09,03,37,7.20
2015,12,09,03,38,7.20
2015,12,09,03,39,7.20
2015,12,09,03,40,7.20
2015,12,09,03,41,7.20
2015,12,09,03,42,7.20
2015,12,09,03,43,7.20
2015,12,09,03,44,7.20
2015,12,09,03,45,7.20
2015,12,09,03,46,7.20
2015,12,09,03,47,7.20
2015,12,09,03,48,7.20
2015,12,09,03,49,7.20
2015,12,09,03,50,7.20
2015,12,09,03,51,7.20
2015,12,09,03,52,7.20
2015,12,09,03,53,7.20
2015,12,09,03,54,7.20
2015,12,09,03,55,7.20
2015,12,09,03,56,7.20
2015,12,09,03,57,7.20
2015,12,09,03,58,7.20
2015,12,09,03,59,7.20
2015,12,09,04,00,7.20
2015,12,09,04,01,7.20
2015,12,09,04,02,7.20
2015,12,09,04,03,7.20
2015,12,09,04,04,7.20
2015,12,09,04,05,7.20
2015,12,09,04,06,7.20
2015,12,09,04,07,7.20
2015,12,09,04,08,7.20
2015,12,09,04,09,7.20
2015,12,09,04,10,7.20
2015,12,09,04,11,7.20
2015,12,09,04,12,7.20
2015,12,09,04,13,7.20
2015,12,09,04,14,7.20
2015,12,09,04,15,7.20
2015,12,09,04,16,7.20
2015,12,09,04,17,7.20
2015,12,09,04,18,7.20
2015,12,09,04,19,7.20
2015,12,09,04,20,7.10
2015,12,09,04,21,7.20
2015,12,09,04,22,7.10
2015,12,09,04,23,7.10
2015,12,09,04,24,7.10
2015,12,09,04,25,7.10
2015,12,09,04,26,7.10
2015,12,09,04,27,7.10
2015,12,09,04,28,7.10
2015,12,09,04,29,7.10
2015,12,09,04,30,7.10
2015,12,09,04,31,7.10
2015,12,09,04,32,7.10
2015,12,09,04,33,7.00
2015,12,09,04,34,7.00
2015,12,09,04,35,7.00
2015,12,09,04,36,7.00
2015,12,09,04,37,7.00
2015,12,09,04,38,7.00
2015,12,09,04,39,6.90
2015,12,09,04,40,6.90
2015,12,09,04,41,6.90
2015,12,09,04,42,6.90
2015,12,09,04,43,6.90
2015,12,09,04,44,6.90
2015,12,09,04,45,6.90
2015,12,09,04,46,6.90
2015,12,09,04,47,6.90
2015,12,09,04,48,6.90
2015,12,09,04,49,6.90
2015,12,09,04,50,6.90
2015,12,09,04,51,6.90
2015,12,09,04,52,6.90
2015,12,09,04,53,6.90
2015,12,09,04,54,6.90
2015,12,09,04,55,6.90
2015,12,09,04,56,6.90
2015,12,09,04,57,7.00
2015,12,09,04,58,7.00
2015,12,09,04,59,7.00
2015,12,09,05,00,7.00
2015,12,09,05,01,7.00
2015,12,09,05,02,7.10
2015,12,09,05,03,7.10
2015,12,09,05,04,7.10
2015,12,09,05,05,7.10
2015,12,09,05,06,7.10
2015,12,09,05,07,7.20
2015,12,09,05,08,7.20
2015,12,09,05,09,7.20
2015,12,09,05,10,7.20
2015,12,09,05,11,7.20
2015,12,09,05,12,7.20
2015,12,09,05,13,7.20
2015,12,09,05,14,7.20
2015,12,09,05,15,7.20
2015,12,09,05,16,7.20
2015,12,09,05,17,7.20
2015,12,09,05,18,7.20
2015,12,09,05,19,7.20
2015,12,09,05,20,7.20
2015,12,09,05,21,7.20
2015,12,09,05,22,7.20
2015,12,09,05,23,7.20
2015,12,09,05,24,7.20
2015,12,09,05,25,7.20
2015,12,09,05,26,7.20
2015,12,09,05,27,7.20
2015,12,09,05,28,7.10
2015,12,09,05,29,7.10
2015,12,09,05,30,7.10
2015,12,09,05,31,7.10
2015,12,09,05,32,7.10
2015,12,09,05,33,7.00
2015,12,09,05,34,7.00
2015,12,09,05,35,7.00
2015,12,09,05,36,6.90
2015,12,09,05,37,6.90
2015,12,09,05,38,6.90
2015,12,09,05,39,6.90
2015,12,09,05,40,6.90
2015,12,09,05,41,6.80
2015,12,09,05,42,6.80
2015,12,09,05,43,6.80
2015,12,09,05,44,6.80
2015,12,09,05,45,6.80
2015,12,09,05,46,6.80
2015,12,09,05,47,6.80
2015,12,09,05,48,6.80
2015,12,09,05,49,6.80
2015,12,09,05,50,6.80
2015,12,09,05,51,6.80
2015,12,09,05,52,6.80
2015,12,09,05,53,6.80
2015,12,09,05,54,6.80
2015,12,09,05,55,6.80
2015,12,09,05,56,6.70
2015,12,09,05,57,6.70
2015,12,09,05,58,6.70
2015,12,09,05,59,6.70
2015,12,09,06,00,6.70
2015,12,09,06,01,6.70
2015,12,09,06,02,6.60
2015,12,09,06,03,6.60
2015,12,09,06,04,6.60
2015,12,09,06,05,6.60
2015,12,09,06,06,6.60
2015,12,09,06,07,6.70
2015,12,09,06,08,6.70
2015,12,09,06,09,6.70
2015,12,09,06,10,6.70
2015,12,09,06,11,6.70
2015,12,09,06,12,6.60
2015,12,09,06,13,6.60
2015,12,09,06,14,6.60
2015,12,09,06,15,6.60
2015,12,09,06,16,6.60
2015,12,09,06,17,6.60
2015,12,09,06,18,6.70
2015,12,09,06,19,6.70
2015,12,09,06,20,6.70
2015,12,09,06,21,6.70
2015,12,09,06,22,6.70
2015,12,09,06,23,6.70
2015,12,09,06,24,6.70
2015,12,09,06,25,6.70
2015,12,09,06,26,6.70
2015,12,09,06,27,6.70
2015,12,09,06,28,6.70
2015,12,09,06,29,6.70
2015,12,09,06,30,6.70
2015,12,09,06,31,6.70
2015,12,09,06,32,6.70
2015,12,09,06,33,6.70
2015,12,09,06,34,6.70
2015,12,09,06,35,6.70
2015,12,09,06,36,6.70
2015,12,09,06,37,6.70
2015,12,09,06,38,6.70
2015,12,09,06,39,6.70
2015,12,09,06,40,6.70
2015,12,09,06,41,6.70
2015,12,09,06,42,6.70
2015,12,09,06,43,6.70
2015,12,09,06,44,6.70
2015,12,09,06,45,6.70
2015,12,09,06,46,6.70
2015,12,09,06,47,6.70
2015,12,09,06,48,6.70
2015,12,09,06,49,6.70
2015,12,09,06,50,6.70
2015,12,09,06,51,6.70
2015,12,09,06,52,6.70
2015,12,09,06,53,6.70
2015,12,09,06,54,6.70
2015,12,09,06,55,6.70
2015,12,09,06,56,6.70
2015,12,09,06,57,6.70
2015,12,09,06,58,6.70
2015,12,09,06,59,6.70
2015,12,09,07,00,6.70
2015,12,09,07,01,6.70
2015,12,09,07,02,6.70
2015,12,09,07,03,6.70
2015,12,09,07,04,6.70
2015,12,09,07,05,6.80
2015,12,09,07,06,6.80
2015,12,09,07,07,6.80
2015,12,09,07,08,6.80
2015,12,09,07,09,6.80
2015,12,09,07,10,6.80
2015,12,09,07,11,6.80
2015,12,09,07,12,6.80
2015,12,09,07,13,6.80
2015,12,09,07,14,6.80
2015,12,09,07,15,6.80
2015,12,09,07,16,6.80
2015,12,09,07,17,6.80
2015,12,09,07,18,6.80
2015,12,09,07,19,6.80
2015,12,09,07,20,6.80
2015,12,09,07,21,6.80
2015,12,09,07,22,6.80
2015,12,09,07,23,6.80
2015,12,09,07,24,6.90
2015,12,09,07,25,6.90
2015,12,09,07,26,6.90
2015,12,09,07,27,6.90
2015,12,09,07,28,6.90
2015,12,09,07,29,6.90
2015,12,09,07,30,6.90
2015,12,09,07,31,6.90
2015,12,09,07,32,6.90
2015,12,09,07,33,6.90
2015,12,09,07,34,6.90
2015,12,09,07,35,6.90
2015,12,09,07,36,6.90
2015,12,09,07,37,6.90
2015,12,09,07,38,6.90
2015,12,09,07,39,6.90
2015,12,09,07,40,6.90
2015,12,09,07,41,6.80
2015,12,09,07,42,6.80
2015,12,09,07,43,6.80
2015,12,09,07,44,6.80
2015,12,09,07,45,6.80
2015,12,09,07,46,6.80
2015,12,09,07,47,6.80
2015,12,09,07,48,6.80
2015,12,09,07,49,6.80
2015,12,09,07,50,6.90
2015,12,09,07,51,6.90
2015,12,09,07,52,6.90
2015,12,09,07,53,6.90
2015,12,09,07,54,6.90
2015,12,09,07,55,6.90
2015,12,09,07,56,6.90
2015,12,09,07,57,6.90
2015,12,09,07,58,6.90
2015,12,09,07,59,6.90
2015,12,09,08,00,6.90
2015,12,09,08,01,7.00
2015,12,09,08,02,6.90
2015,12,09,08,03,6.90
2015,12,09,08,04,6.90
2015,12,09,08,05,6.90
2015,12,09,08,06,6.90
2015,12,09,08,07,6.90
2015,12,09,08,08,6.90
2015,12,09,08,09,6.90
2015,12,09,08,10,6.90
2015,12,09,08,11,6.90
2015,12,09,08,12,6.90
2015,12,09,08,13,6.90
2015,12,09,08,14,6.90
2015,12,09,08,15,6.80
2015,12,09,08,16,6.80
2015,12,09,08,17,6.80
2015,12,09,08,18,6.80
2015,12,09,08,19,6.80
2015,12,09,08,20,6.80
2015,12,09,08,21,6.70
2015,12,09,08,22,6.70
2015,12,09,08,23,6.70
2015,12,09,08,24,6.70
2015,12,09,08,25,6.70
2015,12,09,08,26,6.70
2015,12,09,08,27,6.70
2015,12,09,08,28,6.70
2015,12,09,08,29,6.70
2015,12,09,08,30,6.70
2015,12,09,08,31,6.70
2015,12,09,08,32,6.70
2015,12,09,08,33,6.70
2015,12,09,08,34,6.70
2015,12,09,08,35,6.70
2015,12,09,08,36,6.70
